Terminal Aerodrome Forecast
Issued by NWS

Home | Current Version | Previous Version | Graphics & Text | Print | Product List | Glossary On
Versions: 1 2 3 4 5 6 7 8 9 10 11 12 13 14
000
FTUS43 KUNR 181700
TAFGCC
TAF
KGCC 181720Z 1818/1918 21022G32KT P6SM BKN200
     FM190000 34012KT P6SM SCT130 BKN200
     FM190300 31006KT P6SM SKC
     FM191200 26005KT P6SM SKC=

USA.gov is the U.S. government's official web portal to all federal, state and local government web resources and services.